This is the latest recevied weather packets stored in our database for station/object YO6KXQ-10. If no packets are shown the sender has not sent any weather packets the latest 10 day(s).
| Time | Temp. | Humidity | Pressure | Rain* | Wind** | Luminosity | Snow |
|---|---|---|---|---|---|---|---|
| 1777961624 | 17.78° C | 57% | 1021.2 hPa | - | - | - | - |
| 1777960604 | 17.78° C | 57% | 1021.3 hPa | - | - | - | - |
| 1777959583 | 17.78° C | 57% | 1021.3 hPa | - | - | - | - |
| 1777958563 | 17.78° C | 57% | 1021.3 hPa | - | - | - | - |
| 1777957543 | 17.78° C | 57% | 1021.2 hPa | - | - | - | - |
| 1777956523 | 17.78° C | 57% | 1021.2 hPa | - | - | - | - |
| 1777955503 | 17.78° C | 57% | 1021 hPa | - | - | - | - |
| 1777954483 | 17.78° C | 57% | 1021 hPa | - | - | - | - |
| 1777943260 | 18.33° C | 58% | 1020.3 hPa | - | - | - | - |
| 1777942240 | 18.33° C | 58% | 1020.4 hPa | - | - | - | - |
| 1777937139 | 18.33° C | 58% | 1019.9 hPa | - | - | - | - |
| 1777933058 | 18.89° C | 57% | 1020.2 hPa | - | - | - | - |
| 1777931018 | 18.89° C | 57% | 1020.1 hPa | - | - | - | - |
| 1777929998 | 18.89° C | 57% | 1020 hPa | - | - | - | - |
| 1777924897 | 19.44° C | 56% | 1019.8 hPa | - | - | - | - |
| 1777922856 | 20° C | 55% | 1019.6 hPa | - | - | - | - |
| 1777919796 | 20.56° C | 54% | 1019.6 hPa | - | - | - | - |
| 1777917756 | 20.56° C | 53% | 1019.2 hPa | - | - | - | - |
| 1777915713 | 20.56° C | 53% | 1019 hPa | - | - | - | - |
| 1777913672 | 20.56° C | 52% | 1018.8 hPa | - | - | - | - |
| 1777912652 | 21.11° C | 52% | 1018.7 hPa | - | - | - | - |
| 1777910612 | 20° C | 52% | 1018.6 hPa | - | - | - | - |
| 1777909592 | 20° C | 53% | 1018.4 hPa | - | - | - | - |
| 1777908571 | 20° C | 54% | 1018.4 hPa | - | - | - | - |
| 1777907551 | 20° C | 52% | 1018.5 hPa | - | - | - | - |
* Rain since midnight (hover to see other rain measurements)
** Current wind speed in m/s (hover to see current wind gust speed)